Location: Eaton Estates
(41.3089°N, 82.0057°W)
Time: 08:35:41
(UTC+00:00)

DNEPR-1 R/B - Pass Details

Date: 17 June 2021
Orbit: 588 x 1334 km, 64.6° (Epoch: 27 July)

Event Time Altitude Azimuth Distance (km) Brightness Sun altitude
Rises 03:56:35 0° 327° (NNW) 2,826 8.4 -21.9°
Reaches altitude 10° 03:58:47 10° 329° (NNW) 1,922 7.2 -22.0°
Maximum altitude 04:03:01 79° 55° (NE) 624 3.5 -22.3°
Enters shadow 04:03:31 68° 120° (ESE) 664 3.4 -22.3°
